FENGYUN 1C DEB, 38491

Orbit data source: Space-Track

FENGYUN 1C DEB, 38491 is space debris in SSO originally from a launch on Mon, 10 May 1999 UTC launched from the Taiyaun Space Center, China (TSC). Fengyun 1C debris stems from the Chinese weather satellite Fengyun-1C, which was intentionally destroyed by a Chinese anti-satellite missile in 2007. This event dramatically increased the amount of space debris, with thousands of trackable fragments posing hazards to satellites and human spaceflight. The Fengyun 1C debris cloud has become a focal point in discussions about space sustainability and the need for international regulations to prevent the creation of new debris.

Loading next visibility...
Identifier
38491, 1999-025ESA
Orbit
SSO
Country
Flag of CNCN / PRC
Related business
Manufacturer
Unknown
Mission
Spacecraft
Bus & Motor
Unknown
Mass
Unknown
Launch date (UTC)
1999-05-10 (27 years ago)
Launch vehicle
Unknown
Launch site
Taiyaun Space Center, China (TSC)
Object type
Payload
Rocket body
Debris
Shape & HBR
Unknown shape, 0.1 m
Radar Cross Section
Small (<0.1 m²)

Expand to show TLE details & history
Last TLE update: 2 days ago

TLE from 2 days ago
0 FENGYUN 1C DEB
1 38491U 99025ESA 26236.73387400  .00000786  00000-0  48146-3 0  9998
2 38491  98.9361 240.8393 0226239  44.0118 317.8814 13.96667933700196
Epoch: 2026-08-24T17:36Z
TLE epoch observation values (Epoch: 2026-08-24T17:36:46.713Z)
Latitude
0.00002°
Longitude
3.63333°
Altitude
787.701 km
Speed
7.521 km/s
True Right ascension
16h 03m 21s
True Declination
0° 00' 00"
Sunlit
Object was in daylight at epoch
Visualization orbit readout
Latitude
Unknown
Longitude
Unknown
Altitude
Unknown
Speed
Unknown
Apparent Right ascension
Unknown
Apparent Declination
Unknown
Sunlit
N/A
Visualization observer readout
Local Sidereal Time
05:18:45
Azimuth
Unknown
Elevation
Unknown
Doppler factor
Unknown
Orbital elements
Apogee altitude
1,067.273 km
Perigee altitude
737.837 km
Semi-major axis
7,280.692 km
Eccentricity
0.02262
Inclination
98.9361°
RAAN
240.8393°
Arg. of periapsis
44.0118°
True anomaly
316.10575°
Mean anomaly
317.8814°
Eccentric anomaly
316.99731°
Mean motion
3.49369 °/min
Orbital period
103.04 mins
BSTAR
0.00048146
Loading maneuver chart data...
Computing Atmospheric mass density...

Documentation

Showing up to 5 results
|